ANZ53M NZAA-YSSY

Flight info

Callsign ANZ53M
Flight time N/A
Altitude 38000
Route VELMO DCT 38S163E DCT PLUGA DCT RIKNI N774 MARLN
Aircraft B77W/H-SDE1E2E3FGHIJ2J3J4J5M1RWXY/LB1D1

Departure

Time N/A
Airport Auckland International Airport (NZAA)

Arrival

Time 2026-04-21 10:16
Airport Sydney Kingsford Smith International Airport (YSSY)
Time Latitude Longitude Altitude Speed Heading
2026-04-21 09:14 -36.68895 158.13909 38221 ft 494 kts 285°
2026-04-21 09:14 -36.67723 158.09940 38222 ft 494 kts 285°
2026-04-21 09:15 -36.65348 158.01915 38224 ft 493 kts 285°
2026-04-21 09:15 -36.62971 157.93907 38225 ft 493 kts 285°
2026-04-21 09:16 -36.60590 157.85906 38201 ft 493 kts 285°
2026-04-21 09:16 -36.58205 157.77915 38231 ft 492 kts 285°
2026-04-21 09:17 -36.55818 157.69942 38230 ft 492 kts 285°
2026-04-21 09:17 -36.53423 157.61961 38237 ft 492 kts 285°
2026-04-21 09:18 -36.51040 157.54044 38216 ft 492 kts 285°
2026-04-21 09:18 -36.48638 157.46089 38231 ft 491 kts 285°
2026-04-21 09:19 -36.46228 157.38130 38244 ft 491 kts 285°
2026-04-21 09:19 -36.43817 157.30186 38240 ft 492 kts 285°
2026-04-21 09:20 -36.41396 157.22235 38252 ft 492 kts 285°
2026-04-21 09:20 -36.38971 157.14291 38241 ft 491 kts 285°
2026-04-21 09:21 -36.36558 157.06411 38250 ft 491 kts 285°
2026-04-21 09:21 -36.34127 156.98492 38253 ft 490 kts 285°
2026-04-21 09:22 -36.31697 156.90597 38253 ft 490 kts 285°
2026-04-21 09:22 -36.29263 156.82713 38252 ft 489 kts 285°
2026-04-21 09:23 -36.26829 156.74848 38259 ft 489 kts 285°
2026-04-21 09:23 -36.24385 156.66973 38259 ft 488 kts 285°
2026-04-21 09:24 -36.21955 156.59165 38262 ft 488 kts 285°
2026-04-21 09:24 -36.19510 156.51314 38257 ft 488 kts 285°
2026-04-21 09:25 -36.17059 156.43478 38265 ft 488 kts 285°
2026-04-21 09:25 -36.14605 156.35658 38269 ft 488 kts 285°
2026-04-21 09:26 -36.12143 156.27835 38267 ft 488 kts 285°
2026-04-21 09:26 -36.09679 156.20027 38277 ft 487 kts 285°
2026-04-21 09:27 -36.07212 156.12226 38288 ft 487 kts 285°
2026-04-21 09:27 -36.04738 156.04425 38267 ft 487 kts 285°
2026-04-21 09:28 -36.02260 155.96634 38286 ft 487 kts 285°
2026-04-21 09:28 -35.99790 155.88886 38269 ft 487 kts 285°
2026-04-21 09:29 -35.97305 155.81116 38276 ft 486 kts 285°
2026-04-21 09:29 -35.94816 155.73350 38285 ft 486 kts 285°
2026-04-21 09:30 -35.92322 155.65588 38278 ft 486 kts 285°
2026-04-21 09:30 -35.89822 155.57831 38275 ft 486 kts 285°
2026-04-21 09:31 -35.87323 155.50095 38281 ft 486 kts 285°
2026-04-21 09:31 -35.84818 155.42362 38284 ft 486 kts 285°
2026-04-21 09:32 -35.82321 155.34672 38283 ft 486 kts 285°
2026-04-21 09:32 -35.79806 155.26948 38283 ft 486 kts 285°
2026-04-21 09:33 -35.77284 155.19221 38291 ft 486 kts 285°
2026-04-21 09:33 -35.74756 155.11496 38291 ft 486 kts 285°
2026-04-21 09:34 -35.72222 155.03775 38288 ft 486 kts 285°
2026-04-21 09:34 -35.69698 154.96104 38272 ft 486 kts 285°
2026-04-21 09:35 -35.67159 154.88405 38289 ft 486 kts 285°
2026-04-21 09:35 -35.64619 154.80717 38289 ft 485 kts 285°
2026-04-21 09:36 -35.62031 154.73036 38289 ft 488 kts 289°
2026-04-21 09:36 -35.58529 154.65791 38260 ft 498 kts 300°
2026-04-21 09:37 -35.54101 154.59251 38294 ft 502 kts 305°
2026-04-21 09:37 -35.49490 154.52783 38291 ft 503 kts 305°
2026-04-21 09:38 -35.44900 154.46308 38292 ft 503 kts 304°
2026-04-21 09:38 -35.40331 154.39813 38292 ft 503 kts 304°
2026-04-21 09:39 -35.35762 154.33308 38274 ft 503 kts 304°
2026-04-21 09:39 -35.31192 154.26815 38285 ft 503 kts 304°
2026-04-21 09:40 -35.26619 154.20332 38296 ft 503 kts 304°
2026-04-21 09:40 -35.22038 154.13852 38293 ft 503 kts 304°
2026-04-21 09:41 -35.17483 154.07423 38289 ft 503 kts 304°
2026-04-21 09:41 -35.12899 154.00964 38288 ft 502 kts 304°
2026-04-21 09:42 -35.08309 153.94509 38297 ft 502 kts 304°
2026-04-21 09:42 -35.03724 153.88070 38297 ft 502 kts 304°
2026-04-21 09:43 -34.99132 153.81636 38299 ft 502 kts 304°
2026-04-21 09:43 -34.94538 153.75211 38300 ft 502 kts 304°
2026-04-21 09:44 -34.89973 153.68838 38294 ft 501 kts 305°
2026-04-21 09:44 -34.85387 153.62447 38298 ft 501 kts 305°
2026-04-21 09:45 -34.80789 153.56052 38295 ft 501 kts 305°
2026-04-21 09:45 -34.76190 153.49666 38298 ft 501 kts 305°
2026-04-21 09:46 -34.71588 153.43289 38284 ft 501 kts 305°
2026-04-21 09:46 -34.69294 153.40116 38102 ft 497 kts 305°
2026-04-21 09:46 -34.67020 153.36976 37526 ft 492 kts 305°
2026-04-21 09:47 -34.64795 153.33905 36898 ft 489 kts 305°
2026-04-21 09:47 -34.62555 153.30815 36286 ft 485 kts 305°
2026-04-21 09:47 -34.60332 153.27749 35731 ft 482 kts 305°
2026-04-21 09:47 -34.58128 153.24713 35231 ft 478 kts 305°
2026-04-21 09:48 -34.55937 153.21697 34727 ft 474 kts 305°
2026-04-21 09:48 -34.53765 153.18710 34239 ft 470 kts 305°
2026-04-21 09:48 -34.51604 153.15739 33678 ft 467 kts 305°
2026-04-21 09:48 -34.49485 153.12830 33116 ft 463 kts 305°
2026-04-21 09:49 -34.47361 153.09916 32628 ft 459 kts 306°
2026-04-21 09:49 -34.45253 153.07027 32140 ft 455 kts 306°
2026-04-21 09:49 -34.43165 153.04166 31656 ft 451 kts 306°
2026-04-21 09:49 -34.41091 153.01327 31167 ft 448 kts 306°
2026-04-21 09:50 -34.39033 152.98511 30692 ft 445 kts 306°
2026-04-21 09:50 -34.38334 152.97556 30536 ft 444 kts 306°
2026-04-21 09:50 -34.32927 152.90174 29138 ft 436 kts 306°
2026-04-21 09:51 -34.30918 152.87434 28639 ft 433 kts 306°
2026-04-21 09:51 -34.28927 152.84722 28146 ft 430 kts 306°
2026-04-21 09:51 -34.26947 152.82027 27649 ft 426 kts 306°
2026-04-21 09:51 -34.24985 152.79358 27186 ft 423 kts 306°
2026-04-21 09:52 -34.23036 152.76709 26711 ft 421 kts 306°
2026-04-21 09:52 -34.21094 152.74070 26233 ft 419 kts 306°
2026-04-21 09:52 -34.19160 152.71445 25784 ft 417 kts 307°
2026-04-21 09:52 -34.17238 152.68837 25342 ft 415 kts 307°
2026-04-21 09:53 -34.15321 152.66237 24915 ft 412 kts 307°
2026-04-21 09:53 -34.13443 152.63693 24505 ft 410 kts 307°
2026-04-21 09:53 -34.11547 152.61129 24091 ft 408 kts 307°
2026-04-21 09:53 -34.09761 152.58509 23562 ft 400 kts 298°
2026-04-21 09:54 -34.08502 152.55558 23036 ft 392 kts 285°
2026-04-21 09:54 -34.07751 152.52443 22595 ft 382 kts 275°
2026-04-21 09:54 -34.07431 152.49304 22130 ft 375 kts 271°
2026-04-21 09:54 -34.07166 152.46181 21665 ft 374 kts 271°
2026-04-21 09:55 -34.06902 152.43071 21229 ft 372 kts 271°
2026-04-21 09:55 -34.06635 152.40013 20828 ft 370 kts 272°
2026-04-21 09:55 -34.06358 152.36940 20427 ft 368 kts 272°
2026-04-21 09:55 -34.06078 152.33885 20024 ft 366 kts 272°
2026-04-21 09:56 -34.05795 152.30843 19626 ft 364 kts 272°
2026-04-21 09:56 -34.05510 152.27811 19239 ft 362 kts 272°
2026-04-21 09:56 -34.05225 152.24796 18861 ft 360 kts 272°
2026-04-21 09:56 -34.04941 152.21796 18474 ft 359 kts 273°
2026-04-21 09:57 -34.04656 152.18812 18040 ft 357 kts 272°
2026-04-21 09:57 -34.04372 152.15847 17636 ft 355 kts 273°
2026-04-21 09:57 -34.04091 152.12898 17209 ft 353 kts 273°
2026-04-21 09:57 -34.03814 152.09997 16806 ft 352 kts 273°
2026-04-21 09:58 -34.03532 152.07069 16404 ft 351 kts 272°
2026-04-21 09:58 -34.03245 152.04152 16005 ft 350 kts 273°
2026-04-21 09:58 -34.02949 152.01247 15619 ft 349 kts 273°
2026-04-21 09:58 -34.02653 151.98355 15236 ft 347 kts 273°
2026-04-21 09:59 -34.02358 151.95470 14860 ft 346 kts 273°
2026-04-21 09:59 -34.02065 151.92595 14497 ft 345 kts 273°
2026-04-21 09:59 -34.01772 151.89726 14126 ft 344 kts 273°
2026-04-21 09:59 -34.01578 151.87826 13853 ft 343 kts 273°
2026-04-21 10:00 -34.01287 151.84980 13466 ft 341 kts 273°
2026-04-21 10:00 -34.00997 151.82151 13102 ft 339 kts 273°
2026-04-21 10:00 -34.00706 151.79335 12754 ft 337 kts 274°
2026-04-21 10:00 -34.00416 151.76527 12390 ft 336 kts 273°
2026-04-21 10:01 -34.00129 151.73741 12030 ft 335 kts 273°
2026-04-21 10:01 -33.99844 151.70965 11677 ft 333 kts 274°
2026-04-21 10:01 -33.99560 151.68199 11341 ft 331 kts 274°
2026-04-21 10:01 -33.99276 151.65444 10984 ft 330 kts 273°
2026-04-21 10:02 -33.98714 151.60009 10320 ft 328 kts 274°
2026-04-21 10:02 -33.98430 151.57284 9939 ft 327 kts 274°
2026-04-21 10:02 -33.98149 151.54582 9657 ft 323 kts 274°
2026-04-21 10:03 -33.97869 151.51910 9325 ft 321 kts 274°
2026-04-21 10:03 -33.97591 151.49243 9021 ft 318 kts 274°
2026-04-21 10:03 -33.97330 151.46742 9009 ft 314 kts 274°
2026-04-21 10:03 -33.97056 151.44116 9023 ft 318 kts 274°
2026-04-21 10:04 -33.96779 151.41465 9019 ft 319 kts 274°
2026-04-21 10:04 -33.96498 151.38817 8778 ft 318 kts 274°
2026-04-21 10:04 -33.96221 151.36173 8427 ft 317 kts 273°
2026-04-21 10:04 -33.95945 151.33553 8065 ft 311 kts 276°
2026-04-21 10:05 -33.95252 151.31147 7626 ft 302 kts 300°
2026-04-21 10:05 -33.93818 151.29353 7142 ft 296 kts 327°
2026-04-21 10:05 -33.91948 151.28387 6570 ft 291 kts 343°
2026-04-21 10:05 -33.90013 151.27806 6216 ft 291 kts 348°
2026-04-21 10:06 -33.88000 151.27304 6151 ft 296 kts 348°
2026-04-21 10:06 -33.85972 151.26811 5868 ft 298 kts 348°
2026-04-21 10:06 -33.83937 151.26320 5574 ft 296 kts 348°
2026-04-21 10:06 -33.81937 151.25842 5345 ft 291 kts 349°
2026-04-21 10:07 -33.79961 151.25368 5066 ft 288 kts 349°
2026-04-21 10:07 -33.77998 151.24896 4752 ft 287 kts 349°
2026-04-21 10:07 -33.76068 151.24436 4658 ft 277 kts 349°
2026-04-21 10:07 -33.74212 151.23994 4570 ft 267 kts 348°
2026-04-21 10:08 -33.72414 151.23566 4423 ft 259 kts 348°
2026-04-21 10:08 -33.70661 151.23151 4238 ft 254 kts 349°
2026-04-21 10:08 -33.68966 151.22749 4181 ft 244 kts 349°
2026-04-21 10:08 -33.67350 151.22228 4071 ft 246 kts 331°
2026-04-21 10:09 -33.66069 151.20887 4031 ft 247 kts 298°
2026-04-21 10:09 -33.65540 151.18976 4031 ft 240 kts 266°
2026-04-21 10:09 -33.65751 151.17030 4022 ft 232 kts 249°
2026-04-21 10:09 -33.66375 151.15277 4024 ft 226 kts 237°
2026-04-21 10:10 -33.67136 151.13629 4003 ft 225 kts 236°
2026-04-21 10:10 -33.68030 151.12135 4001 ft 216 kts 215°
2026-04-21 10:10 -33.69395 151.11384 3631 ft 225 kts 184°
2026-04-21 10:10 -33.70937 151.11537 3391 ft 220 kts 170°
2026-04-21 10:11 -33.72406 151.11857 3173 ft 208 kts 169°
2026-04-21 10:11 -33.73762 151.12186 3009 ft 193 kts 168°
2026-04-21 10:11 -33.75025 151.12509 2982 ft 176 kts 168°
2026-04-21 10:11 -33.76192 151.12810 3043 ft 172 kts 168°
2026-04-21 10:12 -33.77367 151.13115 3021 ft 174 kts 168°
2026-04-21 10:12 -33.78547 151.13422 2952 ft 175 kts 168°
2026-04-21 10:12 -33.79744 151.13732 2705 ft 175 kts 168°
2026-04-21 10:12 -33.80924 151.14038 2479 ft 172 kts 168°
2026-04-21 10:13 -33.82082 151.14339 2235 ft 168 kts 168°
2026-04-21 10:13 -33.83204 151.14630 2026 ft 163 kts 169°
2026-04-21 10:13 -33.84274 151.14908 1823 ft 149 kts 168°
2026-04-21 10:13 -33.85286 151.15170 1626 ft 149 kts 169°
2026-04-21 10:14 -33.86283 151.15429 1423 ft 143 kts 169°
2026-04-21 10:14 -33.87218 151.15672 1229 ft 132 kts 169°
2026-04-21 10:14 -33.88117 151.15904 1089 ft 133 kts 169°
2026-04-21 10:14 -33.89017 151.16132 886 ft 129 kts 170°
2026-04-21 10:15 -33.89893 151.16358 660 ft 126 kts 168°
2026-04-21 10:15 -33.90731 151.16586 529 ft 126 kts 169°
2026-04-21 10:15 -33.91590 151.16807 359 ft 125 kts 169°
2026-04-21 10:15 -33.92435 151.17030 199 ft 123 kts 169°
2026-04-21 10:16 -33.93283 151.17248 62 ft 125 kts 168°
2026-04-21 10:16 -33.94091 151.17447 31 ft 108 kts 170°
2026-04-21 10:16 -33.94713 151.17568 35 ft 72 kts 171°
2026-04-21 10:16 -33.95082 151.17629 33 ft 20 kts 189°
2026-04-21 10:17 -33.95159 151.17565 34 ft 16 kts 258°
2026-04-21 10:17 -33.95139 151.17526 34 ft 5 kts 326°
2026-04-21 10:17 -33.95088 151.17508 34 ft 10 kts 355°
2026-04-21 10:17 -33.94990 151.17489 34 ft 20 kts 349°
2026-04-21 10:18 -33.94816 151.17441 35 ft 28 kts 347°
2026-04-21 10:18 -33.94624 151.17391 35 ft 28 kts 346°
2026-04-21 10:18 -33.94432 151.17341 35 ft 28 kts 348°
2026-04-21 10:18 -33.94239 151.17294 34 ft 28 kts 348°
2026-04-21 10:19 -33.94052 151.17245 34 ft 18 kts 348°
2026-04-21 10:19 -33.93983 151.17159 34 ft 17 kts 269°
2026-04-21 10:19 -33.93911 151.17088 35 ft 8 kts 322°
2026-04-21 10:19 -33.93915 151.17024 35 ft 7 kts 255°
2026-04-21 10:20 -33.93922 151.16994 35 ft 3 kts 255°
2026-04-21 10:20 -33.93923 151.16986 35 ft 0 kts 255°